Orbital Elements at Epoch 2459200.5 (2020-Dec-17.0) TDB
Reference: JPL 19 (heliocentric ecliptic J2000)
Element | Value | Uncertainty (1-sigma) | Units |
e | .13388126428085 | 4.7977e-08 | |
a | 2.650581892958773 | 1.6902e-08 | au |
q | 2.295718638049524 | 1.298e-07 | au |
i | 23.79586932993262 | 5.7507e-06 | deg |
node | 229.0906888397723 | 1.2882e-05 | deg |
peri | 224.2374842477943 | 2.5753e-05 | deg |
M | 12.62980045568296 | 2.3388e-05 | deg |
tp | 2459145.202658136354 (2020-Oct-22.70265814) | 0.0001022 | TDB |
period | 1576.196167213001 4.32 | 1.5076e-05 4.128e-08 | d yr |
n | .2283979668828563 | 2.1846e-09 | deg/d |
Q | 3.005445147868022 | 1.9165e-08 | au |
|
| | Orbit Determination Parameters
Additional Information
|